This is the latest recevied weather packets stored in our database for station/object YO8PIC-13. If no packets are shown the sender has not sent any weather packets the latest 10 day(s).
| Time | Temp. | Humidity | Pressure | Rain* | Wind** | Luminosity | Snow |
|---|---|---|---|---|---|---|---|
| 1787898733 | 17.78° C | 69% | 1027.1 hPa | - | - | - | - |
| 1787898133 | 17.78° C | 68% | 1027.1 hPa | - | - | - | - |
| 1787897533 | 17.22° C | 74% | 1027.1 hPa | - | - | - | - |
| 1787896934 | 16.67° C | 76% | 1027 hPa | - | - | - | - |
| 1787896334 | 16.67° C | 77% | 1027 hPa | - | - | - | - |
| 1787895733 | 15.56° C | 79% | 1026.9 hPa | - | - | - | - |
| 1787895133 | 16.11° C | 80% | 1026.9 hPa | - | - | - | - |
| 1787894533 | 15.56° C | 82% | 1026.9 hPa | - | - | - | - |
| 1787893933 | 15° C | 85% | 1026.8 hPa | - | - | - | - |
| 1787893333 | 15° C | 86% | 1026.8 hPa | - | - | - | - |
| 1787892734 | 14.44° C | 87% | 1026.8 hPa | - | - | - | - |
| 1787892133 | 14.44° C | 89% | 1026.8 hPa | - | - | - | - |
| 1787891533 | 14.44° C | 89% | 1026.8 hPa | - | - | - | - |
| 1787890933 | 13.89° C | 90% | 1026.8 hPa | - | - | - | - |
| 1787890333 | 13.89° C | 91% | 1026.9 hPa | - | - | - | - |
| 1787889733 | 13.89° C | 91% | 1026.7 hPa | - | - | - | - |
| 1787889133 | 13.89° C | 91% | 1026.6 hPa | - | - | - | - |
| 1787888533 | 13.89° C | 91% | 1026.6 hPa | - | - | - | - |
| 1787887934 | 13.89° C | 92% | 1026.4 hPa | - | - | - | - |
| 1787887333 | 13.89° C | 92% | 1026.3 hPa | - | - | - | - |
| 1787886734 | 13.89° C | 93% | 1026.3 hPa | - | - | - | - |
| 1787886133 | 13.89° C | 92% | 1026.1 hPa | - | - | - | - |
| 1787885533 | 13.89° C | 92% | 1026.2 hPa | - | - | - | - |
| 1787884933 | 13.89° C | 92% | 1026.2 hPa | - | - | - | - |
| 1787884335 | 13.89° C | 92% | 1026 hPa | - | - | - | - |
* Rain since midnight (hover to see other rain measurements)
** Current wind speed in m/s (hover to see current wind gust speed)